| time (UTC) | temp F | wind direction | speed knots | gust knots | rain 1hr in | rain 24hr in | rain mn in | humidity % | barometer mb |
| 20260507051553 | 0 | 200 | 4.3 | 0.0 | 0.00 | 0.00 | 0.00 | 1008.8 | |
| 20260507050048 | 0 | 223 | 3.5 | 0.0 | 0.00 | 0.00 | 0.00 | 1008.6 | |
| 20260507044544 | 0 | 241 | 1.7 | 0.0 | 0.00 | 0.00 | 0.00 | 1008.5 | |
| 20260507043040 | 0 | 264 | 1.7 | 0.0 | 0.00 | 0.00 | 0.00 | 1008.4 | |
| 20260507041536 | 0 | 228 | 2.6 | 0.0 | 0.00 | 0.00 | 0.00 | 1008.3 | |
| 20260507040032 | 0 | 183 | 0.9 | 0.0 | 0.00 | 0.00 | 0.00 | 1008.0 | |
| 20260507034527 | 0 | 182 | 0.9 | 0.0 | 0.00 | 0.00 | 0.00 | 1007.9 | |
| 20260507033024 | 0 | 254 | 0.0 | 0.0 | 0.00 | 0.00 | 0.00 | 1007.7 | |
| 20260507031518 | 0 | 254 | 0.0 | 0.0 | 0.00 | 0.00 | 0.00 | 1007.5 | |
| 20260507030014 | 0 | 255 | 0.0 | 0.0 | 0.00 | 0.00 | 0.00 | 1007.4 | |
| 20260507024512 | 0 | 255 | 0.0 | 0.0 | 0.00 | 0.00 | 0.00 | 1007.3 | |
| 20260507023005 | 0 | 255 | 0.0 | 0.0 | 0.00 | 0.00 | 0.00 | 1007.2 | |
| 20260507021502 | 0 | 254 | 0.0 | 0.0 | 0.00 | 0.00 | 0.00 | 1007.2 | |
| 20260507020112 | 0 | 251 | 0.9 | 0.0 | 0.00 | 0.00 | 0.00 | 1007.2 | |
| 20260507014555 | 0 | 322 | 1.7 | 0.0 | 0.00 | 0.00 | 0.00 | 1007.2 | |
| 20260507013050 | 0 | 299 | 1.7 | 0.0 | 0.00 | 0.00 | 0.00 | 1007.2 | |
| 20260507011532 | 0 | 304 | 1.7 | 0.0 | 0.00 | 0.00 | 0.00 | 1007.2 | |
| 20260507010032 | 0 | 340 | 1.7 | 0.0 | 0.00 | 0.00 | 0.00 | 1007.3 | |
| 20260507004521 | 0 | 296 | 0.9 | 0.0 | 0.00 | 0.00 | 0.00 | 1007.3 | |
| 20260507003016 | 0 | 309 | 2.6 | 0.0 | 0.00 | 0.00 | 0.00 | 1007.3 | |
| 20260507001512 | 0 | 300 | 1.7 | 0.0 | 0.00 | 0.00 | 0.00 | 1007.3 | |
| 20260507000008 | 0 | 315 | 0.9 | 0.0 | 0.00 | 0.00 | 0.00 | 1007.4 | |
| 20260506234504 | 0 | 92 | 0.9 | 0.0 | 0.00 | 0.00 | 0.00 | 1007.4 | |
| 20260506233112 | 0 | 299 | 0.9 | 0.0 | 0.00 | 0.00 | 0.00 | 1007.6 | |
| 20260506231601 | 0 | 38 | 2.6 | 0.0 | 0.00 | 0.00 | 0.00 | 1007.9 | |
| 20260506230053 | 0 | 76 | 1.7 | 0.0 | 0.00 | 0.00 | 0.00 | 1008.1 | |
| 20260506224546 | 0 | 64 | 1.7 | 0.0 | 0.00 | 0.00 | 0.00 | 1008.3 | |
| 20260506223046 | 0 | 194 | 0.0 | 0.0 | 0.00 | 0.00 | 0.00 | 1008.6 | |
| 20260506221539 | 0 | 27 | 0.9 | 0.0 | 0.00 | 0.00 | 0.00 | 1008.8 | |
| 20260506220034 | 0 | 296 | 0.9 | 0.0 | 0.00 | 0.00 | 0.00 | 1009.1 | |
| 20260506214538 | 0 | 279 | 1.7 | 0.0 | 0.00 | 0.00 | 0.00 | 1009.4 | |
| 20260506213025 | 0 | 38 | 1.7 | 0.0 | 0.00 | 0.00 | 0.00 | 1009.8 | |
| 20260506211520 | 0 | 40 | 0.9 | 0.0 | 0.00 | 0.00 | 0.00 | 1010.1 | |
| 20260506210020 | 0 | 25 | 1.7 | 0.0 | 0.00 | 0.00 | 0.00 | 1010.3 | |
| 20260506204512 | 0 | 22 | 2.6 | 0.0 | 0.00 | 0.00 | 0.00 | 1010.5 | |
| 20260506203007 | 0 | 10 | 0.9 | 0.0 | 0.00 | 0.00 | 0.00 | 1010.6 | |
| 20260506201503 | 0 | 298 | 0.9 | 0.0 | 0.00 | 0.00 | 0.00 | 1010.7 | |
| 20260506200058 | 0 | 218 | 1.7 | 0.0 | 0.00 | 0.00 | 0.00 | 1010.9 | |
| 20260506194554 | 0 | 221 | 2.6 | 0.0 | 0.00 | 0.00 | 0.00 | 1011.2 | |
| 20260506193049 | 0 | 256 | 2.6 | 0.0 | 0.00 | 0.00 | 0.00 | 1011.3 | |
| 20260506191545 | 0 | 219 | 2.6 | 0.0 | 0.00 | 0.00 | 0.00 | 1011.5 | |
| 20260506190040 | 0 | 203 | 0.9 | 0.0 | 0.00 | 0.00 | 0.00 | 1011.8 | |
| 20260506184547 | 0 | 237 | 0.9 | 0.0 | 0.00 | 0.00 | 0.00 | 1012.0 | |
| 20260506183041 | 0 | 250 | 1.7 | 0.0 | 0.00 | 0.00 | 0.00 | 1012.2 | |
| 20260506181537 | 0 | 231 | 0.9 | 0.0 | 0.00 | 0.00 | 0.00 | 1012.3 | |
| 20260506180027 | 0 | 189 | 0.9 | 0.0 | 0.00 | 0.00 | 0.00 | 1012.4 | |
| 20260506174523 | 0 | 250 | 0.9 | 0.0 | 0.00 | 0.00 | 0.00 | 1012.5 | |
| 20260506173014 | 0 | 300 | 0.9 | 0.0 | 0.00 | 0.00 | 0.00 | 1012.5 | |
| 20260506171508 | 0 | 233 | 0.9 | 0.0 | 0.00 | 0.00 | 0.00 | 1012.5 | |
| 20260506170004 | 0 | 222 | 1.7 | 0.0 | 0.00 | 0.00 | 0.00 | 1012.5 | |
| 20260506164613 | 0 | 221 | 0.9 | 0.0 | 0.00 | 0.00 | 0.00 | 1012.6 | |
| 20260506163053 | 0 | 240 | 1.7 | 0.0 | 0.00 | 0.00 | 0.00 | 1012.7 | |
| 20260506161549 | 0 | 224 | 2.6 | 0.0 | 0.00 | 0.00 | 0.00 | 1012.6 | |
| 20260506160052 | 0 | 227 | 0.9 | 0.0 | 0.00 | 0.00 | 0.00 | 1012.6 | |
| 20260506154540 | 0 | 267 | 0.0 | 0.0 | 0.00 | 0.00 | 0.00 | 1012.6 | |
| 20260506153054 | 0 | 250 | 0.0 | 0.0 | 0.00 | 0.00 | 0.00 | 1012.6 | |
| 20260506151532 | 0 | 252 | 0.0 | 0.0 | 0.00 | 0.00 | 0.00 | 1012.6 | |
| 20260506150031 | 0 | 252 | 0.0 | 0.0 | 0.00 | 0.00 | 0.00 | 1012.4 | |
| 20260506144523 | 0 | 245 | 0.0 | 0.0 | 0.00 | 0.00 | 0.00 | 1012.3 | |
| 20260506143019 | 0 | 221 | 0.0 | 0.0 | 0.00 | 0.00 | 0.00 | 1012.1 | |
| 20260506141514 | 0 | 206 | 0.0 | 0.0 | 0.00 | 0.00 | 0.00 | 1012.1 | |
| 20260506140014 | 0 | 206 | 0.0 | 0.0 | 0.00 | 0.00 | 0.00 | 1012.1 | |
| 20260506134505 | 0 | 198 | 0.0 | 0.0 | 0.00 | 0.00 | 0.00 | 1011.9 | |
| 20260506133000 | 0 | 198 | 0.0 | 0.0 | 0.00 | 0.00 | 0.00 | 1011.6 | |
| 20260506131557 | 0 | 198 | 0.0 | 0.0 | 0.00 | 0.00 | 0.00 | 1011.3 | |
| 20260506130056 | 0 | 198 | 0.0 | 0.0 | 0.00 | 0.00 | 0.00 | 1011.2 | |
| 20260506124550 | 0 | 198 | 0.0 | 0.0 | 0.00 | 0.00 | 0.00 | 1010.9 | |
| 20260506123044 | 0 | 198 | 0.0 | 0.0 | 0.00 | 0.00 | 0.00 | 1010.8 | |
| 20260506121539 | 0 | 198 | 0.0 | 0.0 | 0.00 | 0.00 | 0.00 | 1010.7 | |
| 20260506120039 | 0 | 198 | 0.0 | 0.0 | 0.00 | 0.00 | 0.00 | 1010.7 | |
| 20260506114531 | 0 | 198 | 0.0 | 0.0 | 0.00 | 0.00 | 0.00 | 1010.5 | |
| 20260506113036 | 0 | 198 | 0.0 | 0.0 | 0.00 | 0.00 | 0.00 | 1010.3 | |
| 20260506111522 | 0 | 198 | 0.0 | 0.0 | 0.00 | 0.00 | 0.00 | 1010.3 | |
| 20260506110018 | 0 | 198 | 0.0 | 0.0 | 0.00 | 0.00 | 0.00 | 1010.1 | |
| 20260506104513 | 0 | 198 | 0.0 | 0.0 | 0.00 | 0.00 | 0.00 | 1010.0 | |
| 20260506103012 | 0 | 198 | 0.0 | 0.0 | 0.00 | 0.00 | 0.00 | 1010.0 | |
| 20260506101508 | 0 | 198 | 0.0 | 0.0 | 0.00 | 0.00 | 0.00 | 1009.8 | |
| 20260506100100 | 0 | 198 | 0.0 | 0.0 | 0.00 | 0.00 | 0.00 | 1009.7 | |
| 20260506094556 | 0 | 198 | 1.7 | 0.0 | 0.00 | 0.00 | 0.00 | 1009.6 | |
| 20260506093051 | 0 | 206 | 3.5 | 0.0 | 0.00 | 0.00 | 0.00 | 1009.5 | |
| 20260506091553 | 0 | 196 | 4.3 | 0.0 | 0.00 | 0.00 | 0.00 | 1009.4 | |
| 20260506090045 | 0 | 197 | 2.6 | 0.0 | 0.00 | 0.00 | 0.00 | 1009.4 | |
| 20260506084545 | 0 | 206 | 4.3 | 0.0 | 0.00 | 0.00 | 0.00 | 1009.4 | |
| 20260506083034 | 0 | 204 | 2.6 | 0.0 | 0.00 | 0.00 | 0.00 | 1009.4 | |
| 20260506081530 | 0 | 197 | 0.9 | 0.0 | 0.00 | 0.00 | 0.00 | 1009.5 | |
| 20260506073018 | 0 | 223 | 0.9 | 0.0 | 0.00 | 0.00 | 0.00 | 1009.2 | |
| 20260506071512 | 0 | 269 | 0.9 | 0.0 | 0.00 | 0.00 | 0.00 | 1009.3 | |
| 20260506061555 | 0 | 225 | 2.6 | 0.0 | 0.00 | 0.00 | 0.00 | 1008.5 |